{"data":{"norad_id":53893,"intl_designator":"2022-119H","name":"STARLINK-5052","alt_names":[],"object_type":"PAYLOAD","status":"ACTIVE","operator":null,"country":"US","launch_date":"2022-09-24","launch_site_code":"AFETR","launch_vehicle":null,"mission":null,"orbit_class":"UNKNOWN","rcs_meters":null,"size_class":null,"mass_kg":null,"dimensions":null,"purposes":["comms"],"wikipedia_slug":null,"has_3d_model":false,"image_url":null,"decayed_at":null,"tle_current":{"epoch":"2026-09-19T23:03:18.722304Z","epoch_age_seconds":130719,"freshness":"FRESH","line1":"1 53893U 22119H   26262.96063336  .00000850  00000+0  35272-4 0  9992","line2":"2 53893  53.1617 166.3882 0001261  90.8621 269.2527 15.35399306221083","mean_motion":15.35399306,"eccentricity":0.0001261,"inclination_deg":53.1617,"raan_deg":166.3882,"arg_perigee_deg":90.8621,"mean_anomaly_deg":269.2527,"bstar":3.5272e-5,"rev_number":22108,"period_min":93.786677795984,"perigee_km":458.87244759577,"apogee_km":460.59695883932,"semimajor_km":6837.8717032175,"source":"CELESTRAK","updated_at":"2026-09-21T09:00:33.029505Z"}}}